Location: Puketoi
(40.5833°S, 176.0167°E)
Time: 14:33:09
(UTC+00:00)

USA 215 - Pass Details

Date: 08 February 2023
Orbit: 1097 x 1110 km, 123.0° (Epoch: 21 March)

Event Time Altitude Azimuth Distance (km) Brightness Sun altitude
Rises 12:10:20 0° 135° (SE) 3,963 6.7 -34.2°
Reaches altitude 10° 12:12:52 10° 139° (SE) 3,002 6.0 -34.3°
Maximum altitude 12:19:21 59° 216° (SW) 1,277 3.6 -34.4°
Enters shadow 12:20:08 56° 244° (WSW) 1,317 3.6 -34.4°
